Погода в Тофоле

Федеративные Штаты Микронезии     5°19′58″N   163°00′00″E
темп.,
°C
ветер,
м/с
пор.,
м/с
влажн.,
%
обл.,
%
осадки,
мм/ч
давл.,
гПа
погр.,
м
1 марта, пн
пн101:00+28всв897667 0.1 10091126
04:00+28всв787550 0.1 10071056
07:00+28всв897686 0.0 10101018
10:00+28всв897681 0.0 10091070
13:00+28всв897641 0.0 10061079
16:00+28всв787624 0.1 10061024
19:00+28всв787683 0.1 10081161
22:00+28всв787868 0.4 1009903
2 марта, вт
вт201:00+28в897657 0.8 1008983
04:00+28в677434 0.9 1007810
07:00+28всв787643 0.4 1010980
10:00+28всв897672 0.4 10091027
13:00+28всв89799 0.1 1006938
16:00+28всв897910 0.1 1006984
19:00+28всв9108031 0.1 10081046
22:00+28всв9108116 0.4 1009920
3 марта, ср
ср301:00+28всв898270 0.5 1007848
04:00+28всв798241 1.3 1007814
07:00+28всв78806 0.2 1009884
10:00+28в78813 0.5 1009833
13:00+28в89807 0.8 1007869
16:00+28в897820 0.8 1007901
19:00+28в8107743 0.0 10081120
22:00+28в797824 0.1 1008943
4 марта, чт
чт401:00+28в89791 0.3 1007923
04:00+28в8107839 0.6 10071008
07:00+28в9107946 0.1 1009970
10:00+29в8107972 0.1 1008944
13:00+29в787744 0.0 1006996
16:00+29всв677972 0.4 1006887
19:00+28всв8980100 1.3 1008773
22:00+28всв8979100 6.8 1009713
5 марта, пт
пт501:00+28в788197 1.6 1007825
04:00+28в678183 2.4 1007797
07:00+28в7881100 0.2 1009810
10:00+28в678098 1.0 1008781
13:00+28в7780100 0.6 1006827
16:00+28в6780100 1.8 1006774
19:00+28всв688196 0.3 1008765
22:00+28в787797 1.3 1009924